Weather History for Vancouver, BC

Change the Weather History Date:

Sunday, August 18, 2013

  Actual Average Record
Temperature  
Mean Temperature 64 °F -  
Max Temperature 72 °F 69 °F 77 °F (2012)
Min Temperature 56 °F 56 °F 53 °F (2001)
Degree Days  
Heating Degree Days 1    
Growing Degree Days 14 (Base 50)    
Moisture  
Dew Point 56 °F    
Average Humidity 75    
Maximum Humidity 94    
Minimum Humidity 57    
Precipitation  
Precipitation 0.00 in - - ()
Sea Level Pressure  
Sea Level Pressure 30.08 in    
Wind  
Wind Speed 9 mph ()    
Max Wind Speed 13 mph    
Max Gust Speed -    
Visibility 17.2 miles    
Events      
Averages and records for this station are not official NWS values.
T = Trace of Precipitation, MM = Missing Value Source: Averaged Metar Reports

Daily Weather History Graph

Daily Weather History Graph

Search for Another Location

Airport:

Trip Planner

Search our weather history database for the weather conditions in past years. The results will help you decide how hot, cold, wet, or windy it might be!

Date:

Astronomy

Aug. 18, 2013 Rise Set
Actual Time 6:09 AM PDT 8:22 PM PDT
Civil Twilight 5:34 AM PDT 8:57 PM PDT
Nautical Twilight 4:51 AM PDT 9:40 PM PDT
Astronomical Twilight 4:01 AM PDT 10:29 PM PDT
Moon 6:37 PM PDT (8/18) 3:17 AM PDT (8/18)
Length of Visible Light 15h 22m
Length of Day
14h 13m
Waxing Gibbous, 93% of the Moon is Illuminated
Aug 18
Waxing Gibbous
Aug 20
Full
Aug 28
Last Quarter
Sep 5
New
Sep 12
First Quarter

Hourly Weather History & Observations

Time (PDT) Temp. Dew Point Humidity Pressure Visibility Wind Dir Wind Speed Gust Speed Precip Events Conditions
12:00 AM 62.6 °F 57.2 °F 82% 30.06 in 15.0 mi ESE 10.4 mph - N/A   Partly Cloudy
1:00 AM 60.8 °F 55.4 °F 82% 30.06 in 15.0 mi SE 8.1 mph - N/A   Partly Cloudy
2:00 AM 59.0 °F 55.4 °F 88% 30.05 in 15.0 mi East 10.4 mph - N/A   Partly Cloudy
3:00 AM 59.0 °F 55.4 °F 88% 30.06 in 15.0 mi East 10.4 mph - N/A   Partly Cloudy
4:00 AM 57.2 °F 55.4 °F 94% 30.06 in 15.0 mi East 10.4 mph - N/A   Partly Cloudy
5:00 AM 57 °F 54 °F 88% 30.07 in 15 mi East 10.4 mph - -   Scattered Clouds
5:00 AM 57.2 °F 55.4 °F 94% 30.06 in 15.0 mi East 11.5 mph - N/A   Partly Cloudy
6:00 AM 57.2 °F 55.4 °F 94% 30.07 in 15.0 mi East 11.5 mph - N/A   Mostly Cloudy
7:00 AM 59.0 °F 55.4 °F 88% 30.08 in 20.0 mi ESE 10.4 mph - N/A   Mostly Cloudy
8:00 AM 60.8 °F 55.4 °F 82% 30.09 in 25.0 mi ESE 11.5 mph - N/A   Mostly Cloudy
9:00 AM 62.6 °F 55.4 °F 77% 30.10 in 20.0 mi ESE 12.7 mph - N/A   Mostly Cloudy
10:00 AM 62.6 °F 55.4 °F 77% 30.10 in 20.0 mi East 11.5 mph - N/A   Mostly Cloudy
11:00 AM 65 °F 55 °F 63% 30.11 in 19 mi East 12.7 mph - -   Mostly Cloudy
11:00 AM 64.4 °F 55.4 °F 73% 30.11 in 20.0 mi East 11.5 mph - N/A   Mostly Cloudy
12:00 PM 66.2 °F 55.4 °F 68% 30.11 in 25.0 mi East 10.4 mph - N/A   Mostly Cloudy
1:00 PM 68.0 °F 57.2 °F 68% 30.12 in 15.0 mi SE 8.1 mph - N/A   Mostly Cloudy
2:00 PM 68.0 °F 57.2 °F 68% 30.11 in 20.0 mi SSE 10.4 mph - N/A   Mostly Cloudy
3:00 PM 69.8 °F 57.2 °F 64% 30.12 in 20.0 mi SSE 11.5 mph - N/A   Mostly Cloudy
4:00 PM 71.6 °F 59.0 °F 64% 30.11 in 30.0 mi SSE 9.2 mph - N/A   Mostly Cloudy
5:00 PM 71 °F 59 °F 57% 30.10 in 19 mi South 4.6 mph - -   Mostly Cloudy
5:00 PM 71.6 °F 59.0 °F 64% 30.09 in 20.0 mi South 5.8 mph - N/A   Mostly Cloudy
6:00 PM 71.6 °F 55.4 °F 57% 30.08 in 30.0 mi WSW 3.5 mph - N/A   Mostly Cloudy
7:00 PM 69.8 °F 55.4 °F 60% 30.06 in 15.0 mi Variable 2.3 mph - N/A   Mostly Cloudy
8:00 PM 68.0 °F 55.4 °F 64% 30.06 in 20.0 mi SE 9.2 mph - N/A   Mostly Cloudy
9:00 PM 64.4 °F 55.4 °F 73% 30.07 in 20.0 mi SE 6.9 mph - N/A   Mostly Cloudy
10:00 PM 62.6 °F 55.4 °F 77% 30.07 in 15.0 mi East 8.1 mph - N/A   Scattered Clouds
11:00 PM 62 °F 55 °F 71% 30.08 in 15 mi East 9.2 mph - -   Mostly Cloudy
11:00 PM 62.6 °F 55.4 °F 77% 30.07 in 15.0 mi East 9.2 mph - N/A   Mostly Cloudy